EW3027 Weather Reports


Display with metric or nautical units.
time (UTC)temp
F
wind
direction
speed
MPH
gust
MPH
rain 1hr
in
rain 24hr
in
rain mn
in
humidity
%
barometer
mb
20260509111316 48 0.0 0.0 0.00 0.00 0.00 91 1020.1
20260509110316 48 0.0 0.0 0.00 0.00 0.00 90 1020.2
20260509105316 48 0.0 0.0 0.00 0.00 0.00 91 1020.3
20260509104336 49 0.0 0.0 0.00 0.00 0.00 91 1020.3
20260509103356 49 0.0 0.0 0.00 0.00 0.00 91 1020.3
20260509102317 49 0.0 0.0 0.00 0.00 0.00 90 1020.4
20260509101316 49 0.0 0.0 0.00 0.00 0.00 90 1020.4
20260509100316 49 0.0 0.0 0.00 0.00 0.00 89 1020.5
20260509095316 50 0.0 0.0 0.00 0.00 0.00 90 1020.5
20260509094316 50 0.0 0.0 0.00 0.00 0.00 89 1020.4
20260509093316 50 0.0 0.0 0.00 0.00 0.00 89 1020.3
20260509092316 50 0.0 0.0 0.00 0.00 0.00 88 1020.5
20260509091316 50 0.0 0.0 0.00 0.00 0.00 88 1020.6
20260509090316 51 0.0 0.0 0.00 0.00 0.00 88 1020.6
20260509085316 51 0.0 0.0 0.00 0.00 0.00 87 1020.6
20260509084316 51 0.0 0.0 0.00 0.00 0.00 87 1020.7
20260509083316 52 0.0 0.0 0.00 0.00 0.00 87 1020.8
20260509082316 52 0.0 0.0 0.00 0.00 0.00 86 1020.9
20260509081316 53 0.0 0.0 0.00 0.00 0.00 85 1020.8
20260509080316 53 0.0 0.0 0.00 0.00 0.00 85 1020.8
20260509075318 53 0.0 0.0 0.00 0.00 0.00 85 1020.8
20260509074318 53 0.0 0.0 0.00 0.00 0.00 84 1020.8
20260509073317 54 0.0 0.0 0.00 0.00 0.00 84 1020.9
20260509072318 54 0.0 0.0 0.00 0.00 0.00 83 1021.1
20260509071318 54 0.0 0.0 0.00 0.00 0.00 83 1021.2
20260509070358 55 0.0 0.0 0.00 0.00 0.00 82 1021.2
20260509065317 55 0.0 0.0 0.00 0.00 0.00 82 1021.2
20260509064317 55 0.0 0.0 0.00 0.00 0.00 82 1021.2
20260509063317 55 0.0 0.0 0.00 0.00 0.00 82 1021.2
20260509062338 55 0.0 0.0 0.00 0.00 0.00 82 1021.2
20260509061317 55 0.0 0.0 0.00 0.00 0.00 81 1021.1
20260509060318 55 0.0 0.0 0.00 0.00 0.00 81 1021.0
20260509055317 56 0.0 0.0 0.00 0.00 0.00 81 1021.1
20260509054317 56 0.0 0.0 0.00 0.00 0.00 80 1021.1
20260509053317 57 0.0 0.0 0.00 0.00 0.00 78 1021.1
20260509052337 57 0.0 0.0 0.00 0.00 0.00 78 1020.9
20260509051317 57 0.0 0.0 0.00 0.00 0.00 77 1020.9
20260509050317 58 0.0 0.0 0.00 0.00 0.00 76 1020.8
20260509045337 58 0.0 0.0 0.00 0.00 0.00 75 1020.8
20260509044317 59 0.0 0.0 0.00 0.00 0.00 74 1020.7
20260509043317 60 0.0 0.0 0.00 0.00 0.00 73 1020.6
20260509042317 60 0.0 0.0 0.00 0.00 0.00 71 1020.6
20260509041317 61 0.0 0.0 0.00 0.00 0.00 71 1020.5
20260509040317 61 0.0 0.0 0.00 0.00 0.00 69 1020.4
20260509035317 62 0.0 0.0 0.00 0.00 0.00 69 1020.3
20260509034317 62 0.0 0.0 0.00 0.00 0.00 67 1020.2
20260509033317 63 0.0 0.0 0.00 0.00 0.00 64 1020.2
20260509032317 64 0.0 0.0 0.00 0.00 0.00 63 1020.1
20260509031317 65 0.0 0.0 0.00 0.00 0.00 61 1020.0
20260509030317 65 0.0 0.0 0.00 0.00 0.00 60 1020.0
20260509025317 65 0.0 0.0 0.00 0.00 0.00 60 1020.1
20260509024317 66 0.0 0.0 0.00 0.00 0.00 59 1020.0
20260509023317 66 0.0 0.0 0.00 0.00 0.00 59 1019.9
20260509022317 66 0.0 0.0 0.00 0.00 0.00 58 1019.9
20260509021317 66 0.0 0.0 0.00 0.00 0.00 57 1019.9
20260509020317 67 0.0 0.0 0.00 0.00 0.00 56 1019.9
20260509015317 67 0.0 0.0 0.00 0.00 0.00 55 1019.9
20260509014317 67 0.0 0.0 0.00 0.00 0.00 55 1019.8
20260509013317 68 0.0 0.0 0.00 0.00 0.00 54 1019.8
20260509012337 69 0.0 0.0 0.00 0.00 0.00 53 1019.8
20260509011317 69 0.0 0.0 0.00 0.00 0.00 52 1019.8
20260509010317 69 0.0 0.0 0.00 0.00 0.00 52 1019.9
20260509005317 69 0.0 0.0 0.00 0.00 0.00 52 1019.9
20260509004317 68 0.0 0.0 0.00 0.00 0.00 52 1020.0
20260509003316 69 0.0 0.0 0.00 0.00 0.00 50 1020.1
20260509002317 69 0.0 0.0 0.00 0.00 0.00 50 1020.1
20260509001337 69 0.0 0.0 0.00 0.00 0.00 49 1020.0
20260509000337 70 0.0 0.0 0.00 0.00 0.00 49 1019.9
20260508235317 70 0.0 0.0 0.00 0.00 0.00 48 1019.9
20260508234337 69 0.0 0.0 0.00 0.00 0.00 50 1019.9
20260508233317 69 0.0 0.0 0.00 0.00 0.00 49 1019.9
20260508232317 70 0.0 0.0 0.00 0.00 0.00 48 1020.0
20260508231317 69 0.0 0.0 0.00 0.00 0.00 49 1020.1
20260508230317 69 0.0 0.0 0.00 0.00 0.00 50 1020.0
20260508225316 69 0.0 0.0 0.00 0.00 0.00 49 1020.0
20260508224317 69 0.0 0.0 0.00 0.00 0.00 50 1020.0
20260508223317 68 0.0 0.0 0.00 0.00 0.00 50 1020.1
20260508222317 69 0.0 0.0 0.00 0.00 0.00 50 1020.2
20260508221316 68 0.0 0.0 0.00 0.00 0.00 51 1020.4
20260508220317 68 0.0 0.0 0.00 0.00 0.00 52 1020.4
20260508215317 67 0.0 0.0 0.00 0.00 0.00 51 1020.5
20260508214316 67 0.0 0.0 0.00 0.00 0.00 53 1020.6
20260508213317 67 0.0 0.0 0.00 0.00 0.00 53 1020.7
20260508212316 66 0.0 0.0 0.00 0.00 0.00 53 1020.8
20260508211316 65 0.0 0.0 0.00 0.00 0.00 55 1020.8
20260508210316 64 0.0 0.0 0.00 0.00 0.00 56 1020.8
20260508205317 63 0.0 0.0 0.00 0.00 0.00 57 1020.9
20260508204317 63 0.0 0.0 0.00 0.00 0.00 57 1021.0
20260508203316 63 0.0 0.0 0.00 0.00 0.00 57 1021.0
20260508202317 63 0.0 0.0 0.00 0.00 0.00 56 1021.0
20260508201336 62 0.0 0.0 0.00 0.00 0.00 58 1021.0
20260508200336 62 0.0 0.0 0.00 0.00 0.00 58 1021.1
20260508195316 62 0.0 0.0 0.00 0.00 0.00 59 1021.2
20260508194316 61 0.0 0.0 0.00 0.00 0.00 60 1021.3
20260508193317 61 0.0 0.0 0.00 0.00 0.00 61 1021.4
20260508192316 60 0.0 0.0 0.00 0.00 0.00 61 1021.4
20260508191336 60 0.0 0.0 0.00 0.00 0.00 61 1021.5
20260508190317 60 0.0 0.0 0.00 0.00 0.00 63 1021.6
20260508185316 59 0.0 0.0 0.00 0.00 0.00 63 1021.5
20260508184317 59 0.0 0.0 0.00 0.00 0.00 64 1021.6
20260508183316 58 0.0 0.0 0.00 0.00 0.00 64 1021.6
20260508182316 56 23 1.0 1.0 0.00 0.00 0.00 69 1021.8
20260508181316 55 0.0 1.0 0.00 0.00 0.00 70 1021.8
20260508180356 55 23 1.0 2.0 0.00 0.00 0.00 71 1021.9
20260508175316 55 0.0 1.0 0.00 0.00 0.00 72 1021.8
20260508174316 54 0.0 0.0 0.00 0.00 0.00 72 1021.7
20260508173316 54 0.0 0.0 0.00 0.00 0.00 74 1021.6
20260508172316 54 0.0 0.0 0.00 0.00 0.00 74 1021.6
20260508171316 54 0.0 1.0 0.00 0.00 0.00 75 1021.5
20260508170336 53 0.0 1.0 0.00 0.00 0.00 76 1021.3
20260508165316 53 315 1.0 2.0 0.00 0.00 0.00 77 1021.4
20260508164336 53 0.0 0.0 0.00 0.00 0.00 78 1021.2
20260508163316 52 0.0 0.0 0.00 0.00 0.00 79 1021.0
20260508162316 52 0.0 0.0 0.00 0.00 0.00 78 1021.0
20260508161316 52 0.0 1.0 0.00 0.00 0.00 80 1020.8
20260508160316 51 0.0 0.0 0.00 0.00 0.00 79 1021.1
20260508155316 52 0.0 0.0 0.00 0.00 0.00 78 1021.0
20260508154316 52 0.0 1.0 0.00 0.00 0.00 79 1020.7
20260508153316 51 0.0 0.0 0.00 0.00 0.00 80 1021.1
20260508152316 51 0.0 0.0 0.00 0.00 0.00 79 1021.2
20260508151357 50 0.0 0.0 0.00 0.00 0.00 79 1021.4
20260508150316 50 0.0 0.0 0.00 0.00 0.00 79 1021.2
20260508145336 50 0.0 0.0 0.00 0.00 0.00 81 1021.5
20260508144316 49 0.0 0.0 0.00 0.00 0.00 83 1021.3
20260508143316 49 0.0 0.0 0.00 0.00 0.00 84 1021.4
20260508142316 49 0.0 0.0 0.00 0.00 0.00 85 1021.5
20260508141316 48 0.0 0.0 0.00 0.00 0.00 86 1021.4
20260508140316 48 0.0 0.0 0.00 0.00 0.00 86 1021.2
20260508135316 47 0.0 0.0 0.00 0.00 0.00 87 1021.3
20260508134316 47 0.0 0.0 0.00 0.00 0.00 87 1021.0
20260508133316 47 0.0 0.0 0.00 0.00 0.00 88 1020.9
20260508132316 46 0.0 0.0 0.00 0.00 0.00 88 1020.8
20260508131316 46 0.0 0.0 0.00 0.00 0.00 88 1020.9
20260508130316 46 0.0 0.0 0.00 0.00 0.00 88 1020.6
20260508125316 46 0.0 0.0 0.00 0.00 0.00 88 1020.4
20260508124336 46 0.0 0.0 0.00 0.00 0.00 88 1020.3
20260508123316 46 0.0 0.0 0.00 0.00 0.00 88 1020.1
20260508122356 46 0.0 0.0 0.00 0.00 0.00 88 1019.9
20260508121336 47 0.0 0.0 0.00 0.00 0.00 88 1019.8
20260508120318 47 0.0 0.0 0.00 0.00 0.00 88 1019.9
20260508115318 47 0.0 0.0 0.00 0.00 0.00 88 1019.8
20260508114318 47 0.0 0.0 0.00 0.00 0.00 88 1019.7
20260508113318 47 0.0 1.0 0.00 0.00 0.00 88 1019.7
20260508112318 47 68 1.0 2.0 0.00 0.00 0.00 88 1019.7